Weather Roundup
Issued by NWS

Current Version | Previous Version | Graphics & Text | Print | Product List | Glossary On
Versions: 1 2 3 4 5 6 7 8 9 10 11 12 13 14 15 16 17 18 19 20 21 22 23 24 25 26 27 28 29 30 31 32 33 34 35 36 37 38 39 40 41 42 43 44 45 46 47 48 49 50
498
NZUS99 KDVN 120410
HRRCWA
HOURLY WEATHER ROUNDUP
NATIONAL WEATHER SERVICE QUAD CITIES IA IL
1000 PM CST WED DEC 11 2019

Note: "Fair" indicates few or no clouds below 12,000 feet with
no significant weather and/or obstructions to visibility.

* - These stations are not NWS stations and are not subject to NWS
quality control.  Some stations do not report weather such as fog
and some only report TMP and DP in whole degrees Celsius, which are
then converted to Fahrenheit.

...NORTHEAST IOWA..................................................

CITY           SKY/WX    TMP DP  RH WIND       PRES   REMARKS
DECORAH *      MOCLDY    14   5  67 SE5       30.35F WCI   6
DUBUQUE        FAIR      15   8  73 E7        30.39F WCI   5
INDEPENDENCE * FAIR      14   9  81 E10       30.35F WCI   1
OELWEIN *      CLEAR     12  10  92 SE9       30.35F WCI   0
WATERLOO       FAIR      12   5  73 E7        30.35F WCI   1

...SOUTHWEST AND SOUTH CENTRAL WISCONSIN...........................

CITY           SKY/WX    TMP DP  RH WIND       PRES   REMARKS
BOSCOBEL       FAIR      15   7  70 CALM      30.43F
JANESVILLE *   FAIR      14  10  85 CALM      30.45F
LONE ROCK      FAIR      15   6  67 E8        30.44F WCI   4
MINERAL POINT* FAIR      19   9  63 SE7       30.39F WCI  10
MONROE *       FAIR      15   4  61 SE7       30.41F WCI   5
PRAIRIE DU CHI FAIR      17   6  62 E3        30.41F

...EAST CENTRAL IOWA...............................................

CITY           SKY/WX    TMP DP  RH WIND       PRES   REMARKS
CEDAR RAPIDS   FAIR      13   8  81 E13       30.35F WCI  -2
CLINTON *      FAIR      14  12  92 E8        30.44S WCI   3
DAVENPORT      FAIR      16  11  80 E8        30.43F WCI   5
IOWA CITY      FAIR      19  11  70 E8        30.40F WCI   9
MARSHALLTOWN   CLEAR     11   6  81 E13       30.30F WCI  -4
MONTICELLO *   FAIR      16  10  79 E7        30.40F WCI   6
MUSCATINE *    FAIR      21  16  79 E7        30.42S WCI  13
NEWTON *       CLEAR     18  14  86 E13       30.29F WCI   4
VINTON *       FAIR      16  10  79 E6        30.36F WCI   7

...NORTHWEST ILLINOIS..............................................

CITY           SKY/WX    TMP DP  RH WIND       PRES   REMARKS
FREEPORT *     FAIR      13   9  84 E5        30.46F WCI   5
MOLINE         FAIR      16  10  77 E7        30.42F WCI   6
PERU *         FAIR      15  11  83 E7        30.47F WCI   5
ROCHELLE *     FAIR      13  11  90 E7        30.46F WCI   3
ROCKFORD       MOCLDY    16  10  77 E6        30.48F WCI   7
SAVANNA *      FAIR      18  12  79 CALM      30.45S
STERLING/R.F.* FAIR      14  11  87 E6        30.45F WCI   5

...SOUTHEAST IOWA AND NORTHEAST MISSOURI...........................

CITY           SKY/WX    TMP DP  RH WIND       PRES   REMARKS
BURLINGTON     CLEAR     24  16  71 E7        30.37F WCI  16
FAIRFIELD *    CLEAR     19  18  93 SE7       30.35S WCI  10
FORT MADISON * CLEAR     25  19  80 E9        30.38F WCI  15
KEOKUK *       CLEAR     25  21  86 SE9       30.37S WCI  15
KIRKSVILLE     CLEAR     26  20  77 SE8       30.32F WCI  18
KNOXVILLE *    CLEAR     21  18  86 SE8G15    30.28F WCI  12
MT PLEASANT *  CLEAR     23  19  86 SE6       30.37F WCI  16
OTTUMWA        CLEAR     20  15  81 E9        30.32F WCI   9
WASHINGTON *   CLEAR     19  18  93 E8        30.35F WCI   9

...WESTERN ILLINOIS................................................

CITY           SKY/WX    TMP DP  RH WIND       PRES   REMARKS
GALESBURG *    FAIR      21  18  88 E8        30.41F WCI  11
MACOMB *       CLEAR     22  19  86 E7        30.42F WCI  14
PEORIA         FAIR      23  16  74 E8        30.44F WCI  14
QUINCY         CLEAR     27  19  72 SE12      30.37S WCI  17

END...




USA.gov is the U.S. government's official web portal to all federal, state and local government web resources and services.